This is the latest recevied weather packets stored in our database for station/object N7BTW-13. If no packets are shown the sender has not sent any weather packets the latest 10 day(s).
| Time | Temp. | Humidity | Pressure | Rain* | Wind** | Luminosity | Snow |
|---|---|---|---|---|---|---|---|
| 1777479606 | 12.22° C | 73% | 1025.5 hPa | 0 mm | - | - | - |
| 1777478411 | 11.11° C | 76% | 1025.6 hPa | 0 mm | - | - | - |
| 1777471807 | 4.44° C | 99% | 1025.7 hPa | 0 mm | - | - | - |
| 1777465807 | 2.78° C | 99% | 1025.4 hPa | 0 mm | - | - | - |
| 1777465207 | 2.78° C | 99% | 1025.4 hPa | 0 mm | - | - | - |
| 1777464606 | 2.78° C | 99% | 1025.3 hPa | 0 mm | - | - | - |
| 1777463407 | 3.33° C | 99% | 1025.3 hPa | 0 mm | - | - | - |
| 1777462806 | 3.33° C | 99% | 1025.2 hPa | 0 mm | - | - | - |
| 1777462207 | 3.33° C | 99% | 1025.2 hPa | 0 mm | - | - | - |
| 1777461611 | 3.33° C | 99% | 1025.2 hPa | 0 mm | - | - | - |
| 1777458008 | 4.44° C | 99% | 1025 hPa | 0 mm | - | - | - |
| 1777457407 | 4.44° C | 99% | 1025 hPa | 0 mm | - | - | - |
| 1777456806 | 4.44° C | 99% | 1025 hPa | 0 mm | - | - | - |
| 1777456207 | 4.44° C | 99% | 1025.1 hPa | 0 mm | - | - | - |
| 1777455608 | 4.44° C | 98% | 1025 hPa | 0 mm | - | - | - |
| 1777455007 | 5° C | 98% | 1025 hPa | 0 mm | - | - | - |
| 1777454408 | 5° C | 98% | 1025.1 hPa | 0 mm | - | - | - |
| 1777453806 | 5° C | 98% | 1025.1 hPa | 0 mm | - | - | - |
| 1777453208 | 5° C | 98% | 1025.2 hPa | 0 mm | - | - | - |
| 1777452008 | 5.56° C | 98% | 1025.3 hPa | 0 mm | - | - | - |
| 1777451406 | 5.56° C | 98% | 1025.3 hPa | 0 mm | - | - | - |
| 1777450808 | 5° C | 97% | 1025.4 hPa | 0 mm | - | - | - |
| 1777450208 | 5° C | 97% | 1025.4 hPa | 0 mm | - | - | - |
| 1777449606 | 5° C | 97% | 1025.3 hPa | 0 mm | - | - | - |
| 1777448408 | 5.56° C | 97% | 1025.3 hPa | 0 mm | - | - | - |
* Rain latest hour (hover to see other rain measurements)
** Current wind speed in m/s (hover to see current wind gust speed)